Weather History for KDXX - September, 2013

Change the Weather History Date:

Wednesday, September 18, 2013

  Actual Average (KAQP) Record (KAQP)
Temperature  
Mean Temperature 76 °F -  
Max Temperature 91 °F 69 °F 93 °F (1998)
Min Temperature 62 °F 45 °F 35 °F (2007)
Cooling Degree Days 12    
Growing Degree Days 26 (Base 50)    
Moisture  
Dew Point 67 °F    
Average Humidity 76    
Maximum Humidity 100    
Minimum Humidity 43    
Precipitation  
Precipitation 0.00 in - - ()
Sea Level Pressure  
Sea Level Pressure 29.69 in    
Wind  
Wind Speed 10 mph (SSE)    
Max Wind Speed 16 mph    
Max Gust Speed 22 mph    
Visibility 7 miles    
Events      
Averages and records for this station are not official NWS values.
T = Trace of Precipitation, MM = Missing Value Source: NWS Daily Summary

Daily Weather History Graph

Daily Weather History Graph

Search for Another Location

Airport or City:

Trip Planner

Search our weather history database for the weather conditions in past years. The results will help you decide how hot, cold, wet, or windy it might be!

Date:

Astronomy

Sep. 18, 2013 Rise Set
Actual Time 7:07 AM CDT 7:29 PM CDT
Civil Twilight 6:37 AM CDT 7:58 PM CDT
Nautical Twilight 6:03 AM CDT 8:33 PM CDT
Astronomical Twilight 5:27 AM CDT 9:08 PM CDT
Moon 6:52 PM CDT (9/18) 6:10 AM CDT (9/18)
Length of Visible Light 13h 20m
Length of Day
12h 21m
Waxing Gibbous, 99% of the Moon is Illuminated
Sep 18
Waxing Gibbous
Sep 19
Full
Sep 26
Last Quarter
Oct 4
New
Oct 11
First Quarter

Hourly Weather History & Observations

Time (CDT) Temp. Heat Index Dew Point Humidity Pressure Visibility Wind Dir Wind Speed Gust Speed Precip Events Conditions
12:14 AM 62.6 °F - 60.8 °F 94% 29.84 in 7.0 mi SE 10.4 mph - N/A   Mostly Cloudy
12:34 AM 62.6 °F - 60.8 °F 94% 29.83 in 7.0 mi SSE 9.2 mph - N/A   Overcast
12:53 AM 64.4 °F - 60.8 °F 88% 29.82 in 10.0 mi SSE 10.4 mph - N/A   Overcast
1:14 AM 64.4 °F - 60.8 °F 88% 29.82 in 7.0 mi SSE 10.4 mph - N/A   Overcast
1:34 AM 64.4 °F - 60.8 °F 88% 29.82 in 7.0 mi SSE 12.7 mph 18.4 mph N/A   Overcast
1:53 AM 64.4 °F - 60.8 °F 88% 29.82 in 5.0 mi SSE 9.2 mph - N/A   Mostly Cloudy
2:14 AM 64.4 °F - 60.8 °F 88% 29.81 in 4.0 mi SSE 10.4 mph - N/A   Scattered Clouds
2:34 AM 64.4 °F - 60.8 °F 88% 29.81 in 3.0 mi SSE 9.2 mph - N/A   Mist
2:53 AM 64.4 °F - 62.6 °F 94% 29.80 in 2.0 mi SE 10.4 mph - N/A   Mostly Cloudy
3:13 AM 64.4 °F - 62.6 °F 94% 29.79 in 1.2 mi SE 9.2 mph - N/A   Overcast
3:34 AM 64.4 °F - 62.6 °F 94% 29.78 in 1.2 mi SE 10.4 mph - N/A   Overcast
3:53 AM 64.4 °F - 62.6 °F 94% 29.77 in 1.2 mi SE 9.2 mph - N/A   Overcast
4:13 AM 64.4 °F - 62.6 °F 94% 29.76 in 1.2 mi SE 9.2 mph - N/A   Overcast
4:34 AM 64.4 °F - 62.6 °F 94% 29.76 in 1.5 mi SE 8.1 mph - N/A   Overcast
4:53 AM 64.4 °F - 62.6 °F 94% 29.75 in 1.5 mi SE 9.2 mph - N/A   Overcast
5:14 AM 64.4 °F - 62.6 °F 94% 29.74 in 1.5 mi SE 8.1 mph - N/A   Overcast
5:34 AM 64.4 °F - 62.6 °F 94% 29.73 in 1.2 mi SE 9.2 mph - N/A   Overcast
5:53 AM 66.2 °F - 64.4 °F 94% 29.72 in 1.2 mi SE 6.9 mph - N/A   Overcast
6:14 AM 66.2 °F - 64.4 °F 94% 29.72 in 1.5 mi ESE 8.1 mph - N/A   Overcast
6:34 AM 66.2 °F - 64.4 °F 94% 29.71 in 1.8 mi SE 6.9 mph - N/A   Overcast
6:53 AM 66.2 °F - 64.4 °F 94% 29.72 in 2.0 mi SE 8.1 mph - N/A   Mostly Cloudy
7:14 AM 66.2 °F - 66.2 °F 100% 29.72 in 2.0 mi SE 6.9 mph - N/A   Mist
7:34 AM 68.0 °F - 66.2 °F 94% 29.73 in 2.0 mi SE 6.9 mph - N/A   Mist
7:54 AM 68.0 °F - 66.2 °F 94% 29.73 in 1.2 mi SE 5.8 mph - N/A   Mist
8:13 AM 69.8 °F - 66.2 °F 88% 29.73 in 1.5 mi SE 4.6 mph - N/A   Mist
8:34 AM 69.8 °F - 66.2 °F 88% 29.73 in 1.5 mi SE 4.6 mph - N/A   Mist
8:54 AM 69.8 °F - 68.0 °F 94% 29.72 in 1.8 mi SE 9.2 mph - N/A   Mist
9:13 AM 71.6 °F - 68.0 °F 88% 29.72 in 2.0 mi SE 9.2 mph - N/A   Mist
9:34 AM 71.6 °F - 68.0 °F 88% 29.71 in 2.5 mi SE 11.5 mph - N/A   Mist
9:53 AM 73.4 °F - 69.8 °F 88% 29.71 in 4.0 mi SE 11.5 mph - N/A   Clear
10:14 AM 73.4 °F - 69.8 °F 88% 29.70 in 5.0 mi SSE 12.7 mph - N/A   Haze
10:34 AM 75.2 °F - 69.8 °F 83% 29.69 in 7.0 mi SSE 13.8 mph 17.3 mph N/A   Clear
10:53 AM 77.0 °F - 69.8 °F 78% 29.69 in 7.0 mi South 12.7 mph - N/A   Clear
11:14 AM 78.8 °F - 68.0 °F 69% 29.69 in 10.0 mi South 15.0 mph 21.9 mph N/A   Clear
11:34 AM 78.8 °F - 69.8 °F 74% 29.68 in 10.0 mi South 13.8 mph 18.4 mph N/A   Clear
11:53 AM 80.6 °F 83.9 °F 69.8 °F 70% 29.68 in 10.0 mi South 9.2 mph 16.1 mph N/A   Clear
12:14 PM 82.4 °F 86.3 °F 69.8 °F 66% 29.67 in 10.0 mi South 15.0 mph - N/A   Clear
12:34 PM 82.4 °F 86.3 °F 69.8 °F 66% 29.67 in 10.0 mi South 12.7 mph 19.6 mph N/A   Clear
12:53 PM 84.2 °F 88.4 °F 69.8 °F 62% 29.66 in 10.0 mi South 13.8 mph 17.3 mph N/A   Clear
1:14 PM 84.2 °F 88.4 °F 69.8 °F 62% 29.66 in 10.0 mi South 12.7 mph - N/A   Clear
1:33 PM 84.2 °F 88.4 °F 69.8 °F 62% 29.65 in 10.0 mi SSE 9.2 mph - N/A   Clear
1:53 PM 84.2 °F 87.3 °F 68.0 °F 58% 29.64 in 10.0 mi SSE 16.1 mph 19.6 mph N/A   Clear
2:14 PM 86.0 °F 89.4 °F 68.0 °F 55% 29.63 in 10.0 mi South 11.5 mph - N/A   Clear
2:33 PM 87.8 °F 91.4 °F 68.0 °F 52% 29.63 in 10.0 mi South 11.5 mph 17.3 mph N/A   Clear
2:53 PM 87.8 °F 92.6 °F 69.8 °F 55% 29.63 in 10.0 mi South 15.0 mph 18.4 mph N/A   Clear
3:14 PM 89.6 °F 94.7 °F 69.8 °F 52% 29.62 in 10.0 mi South 12.7 mph 18.4 mph N/A   Clear
3:33 PM 89.6 °F 93.4 °F 68.0 °F 49% 29.61 in 10.0 mi South 13.8 mph 19.6 mph N/A   Clear
3:53 PM 89.6 °F 93.4 °F 68.0 °F 49% 29.61 in 10.0 mi SSE 15.0 mph - N/A   Clear
4:13 PM 91.4 °F 95.4 °F 68.0 °F 46% 29.61 in 10.0 mi SSE 13.8 mph 19.6 mph N/A   Clear
4:33 PM 89.6 °F 92.2 °F 66.2 °F 46% 29.61 in 10.0 mi South 15.0 mph 20.7 mph N/A   Clear
4:54 PM 89.6 °F 93.4 °F 68.0 °F 49% 29.61 in 10.0 mi South 10.4 mph 17.3 mph N/A   Clear
5:13 PM 91.4 °F 94.0 °F 66.2 °F 43% 29.60 in 10.0 mi South 13.8 mph 21.9 mph N/A   Clear
5:34 PM 91.4 °F 94.0 °F 66.2 °F 43% 29.60 in 10.0 mi South 13.8 mph 20.7 mph N/A   Clear
5:54 PM 89.6 °F 92.2 °F 66.2 °F 46% 29.60 in 10.0 mi South 10.4 mph 18.4 mph N/A   Clear
6:13 PM 89.6 °F 93.4 °F 68.0 °F 49% 29.61 in 10.0 mi South 9.2 mph - N/A   Clear
6:34 PM 87.8 °F 92.6 °F 69.8 °F 55% 29.60 in 10.0 mi South 9.2 mph - N/A   Clear
6:54 PM 86.0 °F 88.2 °F 66.2 °F 51% 29.60 in 10.0 mi South 10.4 mph 16.1 mph N/A   Clear
7:13 PM 84.2 °F 88.4 °F 69.8 °F 62% 29.59 in 10.0 mi South 8.1 mph - N/A   Clear
7:34 PM 84.2 °F 88.4 °F 69.8 °F 62% 29.60 in 10.0 mi South 9.2 mph - N/A   Clear
7:54 PM 82.4 °F 86.3 °F 69.8 °F 66% 29.60 in 10.0 mi SSE 9.2 mph - N/A   Clear
8:13 PM 82.4 °F 86.3 °F 69.8 °F 66% 29.61 in 10.0 mi SSE 9.2 mph - N/A   Clear
8:34 PM 80.6 °F 83.9 °F 69.8 °F 70% 29.63 in 10.0 mi SSE 6.9 mph - N/A   Clear
8:53 PM 78.8 °F - 69.8 °F 74% 29.63 in 10.0 mi SSE 6.9 mph - N/A   Clear
9:14 PM 78.8 °F - 69.8 °F 74% 29.62 in 10.0 mi SSE 8.1 mph - N/A   Clear
9:33 PM 78.8 °F - 69.8 °F 74% 29.62 in 10.0 mi SSE 6.9 mph - N/A   Clear
9:54 PM 78.8 °F - 69.8 °F 74% 29.62 in 10.0 mi SE 6.9 mph - N/A   Clear
10:13 PM 75.2 °F - 69.8 °F 83% 29.64 in 10.0 mi SSE 3.5 mph - N/A   Clear
10:34 PM 75.2 °F - 69.8 °F 83% 29.63 in 10.0 mi SSE 4.6 mph - N/A   Clear
10:54 PM 75.2 °F - 69.8 °F 83% 29.64 in 10.0 mi SSE 4.6 mph - N/A   Clear
11:13 PM 75.2 °F - 69.8 °F 83% 29.62 in 10.0 mi SE 8.1 mph - N/A   Clear
11:33 PM 75.2 °F - 69.8 °F 83% 29.63 in 10.0 mi SE 5.8 mph - N/A   Clear
11:54 PM 75.2 °F - 69.8 °F 83% 29.63 in 10.0 mi SSE 6.9 mph - N/A   Clear